Flag for Pakistan Weather past 2 weeks in Peshawar, Pakistan

Now
82 °F

Warm.


Feels Like: 85 °F
Forecast: 68 / 92 °F
Wind: N/A

Location: Peshawar Airport

Current Time: Oct 20, 2014 at 2:18:39 PM

Latest Report: Oct 20, 2014 at 2:00 PM


Visibility: N/A

Pressure: 29.98 "Hg

Humidity: 62%

Dew point: 68 °F

Location of PeshawarLocation

Historic Weather in Peshawar — Graph

°F

Peshawar temperature yesterday

Maximum temperature yesterday: 79 °F (at 12:00 PM)
Minimum temperature yesterday: 63 °F (at 3:00 AM)
Average temperature yesterday: 71 °F

Past Weeks' High & Low Weather Summary

 TemperatureHumidityPressure
High91 °F (Oct 5, 1:00 PM)100% (Oct 12, 2:00 PM)30.12 "Hg (Oct 12, 2:00 PM)
Low37 °F (Oct 12, 2:00 PM)32% (Oct 9, 9:00 PM)29.74 "Hg (Oct 7, 3:00 PM)
Average73 °F65%29.96 "Hg
* Reported Oct 5 1:00 PM — Oct 20 1:00 PM, Peshawar, Weather by CustomWeather, © 2014

Note: Actual official high and low records may vary slightly from our data, if they occured in-between our weather recording intervals... More about our weather records

Advertising

Peshawar weather history for previous 24 hours

 ConditionsComfort  
Time TempWeatherWind HumidityBarometerVisibility
1:00 PM
Oct 20
81 °FWarm.N/A51%29.98 "HgN/A
12:00 PM79 °FWarm.N/A51%30.01 "HgN/A
11:00 AM77 °FWarm.N/A54%30.04 "HgN/A
10:00 AM75 °FMild.N/A61%30.04 "HgN/A
8:00 AM66 °FMild.N/A78%30.04 "HgN/A
7:00 AM64 °FFog.No wind83%30.01 "Hg2 mi
6:30 AMN/A18 mphN/AN/AN/A
6:00 AM64 °FFog.No wind83%30.01 "Hg2 mi
5:00 AM64 °FFog.5 mph73%30.01 "Hg2 mi
4:00 AM66 °FPassing clouds.5 mph78%30.01 "Hg2 mi
3:00 AM68 °FPartly cloudy.5 mph73%30.04 "Hg2 mi
2:00 AM68 °FPartly cloudy.No wind73%30.04 "Hg2 mi
1:00 AM68 °FMild.N/A73%30.04 "HgN/A
12:00 AM68 °FMild.N/A69%30.04 "HgN/A
11:00 PM
Oct 19
70 °FMild.N/A69%30.01 "HgN/A
10:00 PM70 °FMild.N/A69%30.01 "HgN/A
9:00 PM70 °FMild.N/A69%30.01 "HgN/A
8:00 PM73 °FMild.N/A65%30.01 "HgN/A
7:00 PM75 °FPartly cloudy.9 mph61%29.98 "Hg2 mi
6:00 PM75 °FPassing clouds.7 mph61%29.95 "Hg2 mi
5:00 PM77 °FScattered clouds.7 mph57%29.95 "Hg2 mi
4:00 PM77 °FBroken clouds.9 mph57%29.95 "Hg2 mi
3:00 PM77 °FBroken clouds.12 mph51%29.95 "Hg2 mi
2:00 PM79 °FWarm.N/A54%29.92 "HgN/A
Weather by CustomWeather, © 2014

See weather overviewHow to use our weather pages